Flag for U.S.A. Weather past 2 weeks in Eau Claire, Wisconsin, U.S.A.

Now
74 °F

Clear.


Feels Like: 75 °F
Forecast: 64 / 85 °F
Wind: 6 mph from South

Location: Eau Claire County Airport

Current Time: Jul 4, 2015 at 11:36:34 PM

Latest Report: Jul 4, 2015 at 9:56 PM


Visibility: 5 mi

Pressure: 29.91 "Hg

Humidity: 74%

Dew point: 65 °F

Location of Eau ClaireLocation

Historic Weather in Eau Claire — Graph

°F

Eau Claire temperature yesterday

Maximum temperature yesterday: 78 °F (at 2:56 PM)
Minimum temperature yesterday: 54 °F (at 4:56 AM)
Average temperature yesterday: 67 °F

Past Weeks' High & Low Weather Summary

 TemperatureHumidityPressure
High83 °F (Jul 4, 2:56 PM)100% (Jun 29, 2:56 AM)30.11 "Hg (Jun 29, 2:56 AM)
Low47 °F (Jul 1, 4:56 AM)33% (Jun 27, 3:56 PM)29.50 "Hg (Jun 22, 10:56 AM)
Average67 °F72%29.92 "Hg
* Reported Jun 19 9:56 PM — Jul 4 9:56 PM, Eau Claire, Weather by CustomWeather, © 2015

Note: Actual official high and low records may vary slightly from our data, if they occured in-between our weather recording intervals... More about our weather records

Advertising

Eau Claire weather history for previous 24 hours

 ConditionsComfort  
Time TempWeatherWind HumidityBarometerVisibility
9:56 PM
Sat, Jul 4
74 °FClear.6 mph74%29.91 "Hg5 mi
8:56 PM76 °FHaze.7 mph67%29.90 "Hg5 mi
7:56 PM78 °FSunny.7 mph62%29.90 "Hg6 mi
6:56 PM80 °FSunny.7 mph58%29.90 "Hg6 mi
5:56 PM82 °FHaze.7 mph53%29.90 "Hg5 mi
4:56 PM83 °FBroken clouds.7 mph53%29.92 "Hg5 mi
3:56 PM82 °FScattered clouds.8 mph51%29.92 "Hg5 mi
2:56 PM83 °FScattered clouds.6 mph50%29.93 "Hg5 mi
1:56 PM82 °FSunny.5 mph53%29.93 "Hg6 mi
12:56 PM80 °FSunny.5 mph54%29.93 "Hg5 mi
11:56 AM78 °FSunny.3 mph60%29.94 "Hg7 mi
10:56 AM76 °FSunny.5 mph64%29.94 "Hg10 mi
9:56 AM72 °FSunny.No wind68%29.94 "HgN/A
8:56 AM69 °FSunny.No wind73%29.94 "HgN/A
7:56 AM65 °FSunny.3 mph81%29.94 "Hg10 mi
6:56 AM62 °FSunny.No wind90%29.94 "Hg8 mi
5:56 AM60 °FClear.No wind86%29.93 "Hg10 mi
4:56 AM61 °FClear.No wind83%29.92 "Hg10 mi
3:56 AM62 °FClear.No wind80%29.91 "Hg10 mi
2:56 AM63 °FClear.3 mph78%29.90 "Hg10 mi
1:56 AM64 °FClear.7 mph75%29.90 "Hg10 mi
12:56 AM64 °FClear.6 mph78%29.90 "Hg10 mi
11:56 PM
Fri, Jul 3
66 °FPassing clouds.5 mph75%29.90 "Hg10 mi
Weather by CustomWeather, © 2015

See weather overviewHow to use our weather pages